DW4188 Weather Reports


time (UTC)temp
C
wind
direction
speed
KPH
gust
KPH
rain 1hr
cm
rain 24hr
cm
rain mn
cm
humidity
%
barometer
mb
20260505110903 21 0 0.0 0.0 0.00 0.00 0.00 85 1014.7
20260505101804 22 0 0.0 0.0 0.00 0.00 0.00 85 1014.2
20260505100903 22 0 0.0 0.0 0.00 0.00 0.00 85 1014.3
20260505100003 22 0 0.0 0.0 0.00 0.00 0.00 85 1014.5
20260505095404 22 0 0.0 0.0 0.00 0.00 0.00 84 1014.4
20260505094504 22 0 0.0 0.0 0.00 0.00 0.00 84 1014.5
20260505093604 22 0 0.0 0.0 0.00 0.00 0.00 84 1014.4
20260505092704 22 0 0.0 0.0 0.00 0.00 0.00 84 1014.3
20260505091804 22 0 0.0 0.0 0.00 0.00 0.00 84 1014.1
20260505090924 22 0 0.0 0.0 0.00 0.00 0.00 83 1014.1
20260505090004 22 0 0.0 0.0 0.00 0.00 0.00 83 1013.9
20260505085403 22 0 0.0 0.0 0.00 0.00 0.00 83 1014.1
20260505084504 22 0 0.0 0.0 0.00 0.00 0.00 83 1013.9
20260505083603 22 0 0.0 0.0 0.00 0.00 0.00 83 1013.4
20260505082704 22 0 0.0 0.0 0.00 0.00 0.00 82 1013.2
20260505081803 22 0 0.0 0.0 0.00 0.00 0.00 82 1013.2
20260505080904 22 0 0.0 0.0 0.00 0.00 0.00 82 1012.6
20260505080004 22 0 0.0 0.0 0.00 0.00 0.00 81 1012.7
20260505075404 22 0 0.0 0.0 0.00 0.00 0.00 81 1013.0
20260505074504 23 0 0.0 0.0 0.00 0.00 0.00 81 1012.9
20260505073604 23 0 0.0 0.0 0.00 0.00 0.00 81 1012.7
20260505072704 23 0 0.0 0.0 0.00 0.00 0.00 81 1012.6
20260505071804 23 0 0.0 0.0 0.00 0.00 0.00 81 1012.5
20260505070905 23 0 0.0 0.0 0.00 0.00 0.00 80 1012.6
20260505070004 23 0 0.0 0.0 0.00 0.00 0.00 80 1012.4
20260505065404 23 0 0.0 0.0 0.00 0.00 0.00 80 1012.3
20260505064525 23 0 0.0 0.0 0.00 0.00 0.00 80 1012.5
20260505063604 23 0 0.0 0.0 0.00 0.00 0.00 79 1012.4
20260505062704 23 0 0.0 0.0 0.00 0.00 0.00 79 1012.3
20260505061804 23 0 0.0 0.0 0.00 0.00 0.00 78 1012.6
20260505060903 23 0 0.0 0.0 0.00 0.00 0.00 78 1012.3
20260505060025 23 0 0.0 0.0 0.00 0.00 0.00 78 1012.1
20260505055425 23 0 0.0 0.0 0.00 0.00 0.00 78 1012.1
20260505054525 24 0 0.0 0.0 0.00 0.00 0.00 77 1012.2
20260505053603 24 0 0.0 0.0 0.00 0.00 0.00 77 1012.2
20260505052704 24 0 0.0 0.0 0.00 0.00 0.00 77 1012.3
20260505051803 24 0 0.0 0.0 0.00 0.00 0.00 77 1012.4
20260505050924 24 0 0.0 0.0 0.00 0.00 0.00 77 1012.2
20260505040904 25 0 0.0 0.0 0.00 0.00 0.00 74 1011.8
20260505040004 25 0 0.0 0.0 0.00 0.00 0.00 74 1011.7
20260505035404 25 0 0.0 0.0 0.00 0.00 0.00 74 1011.7
20260505034525 25 0 0.0 0.0 0.00 0.00 0.00 71 1011.9
20260505033604 25 0 0.0 0.0 0.00 0.00 0.00 71 1011.7
20260505032703 25 0 0.0 0.0 0.00 0.00 0.00 71 1011.8
20260505031803 25 0 0.0 0.0 0.00 0.00 0.00 69 1011.7
20260505030903 25 0 0.0 0.0 0.00 0.00 0.00 70 1011.9
20260505030004 24 0 0.0 0.0 0.00 0.00 0.00 68 1012.1
20260505025404 24 0 0.0 0.0 0.00 0.00 0.00 70 1012.1
20260505024503 24 0 0.0 0.0 0.00 0.00 0.00 72 1012.3
20260505023624 24 0 0.0 0.0 0.00 0.00 0.00 70 1012.5
20260505022703 24 0 0.0 0.0 0.00 0.00 0.00 71 1012.6
20260505021803 24 0 0.0 0.0 0.00 0.00 0.00 72 1012.5
20260505020903 24 0 0.0 0.0 0.00 0.00 0.00 72 1012.7
20260505020024 24 0 0.0 0.0 0.00 0.00 0.00 72 1012.7
20260505015404 24 0 0.0 0.0 0.00 0.00 0.00 74 1012.9
20260505014503 24 0 0.0 0.0 0.00 0.00 0.00 74 1013.0
20260505013604 24 0 0.0 0.0 0.00 0.00 0.00 73 1013.2
20260505012725 23 0 0.0 0.0 0.00 0.00 0.00 74 1013.3
20260505011803 23 0 0.0 0.0 0.00 0.00 0.00 77 1013.7
20260505010904 23 0 0.0 0.0 0.00 0.00 0.00 77 1013.8
20260505010004 23 0 0.0 0.0 0.00 0.00 0.00 79 1014.1
20260505005403 23 0 0.0 0.0 0.00 0.00 0.00 80 1014.0
20260505004504 22 0 0.0 0.0 0.00 0.00 0.00 81 1014.1
20260505003604 22 0 0.0 0.0 0.00 0.00 0.00 82 1014.2
20260505002724 22 0 0.0 0.0 0.00 0.00 0.00 82 1014.1
20260505001804 22 0 0.0 0.0 0.00 0.00 0.00 82 1014.4
20260505000904 22 0 0.0 0.0 0.00 0.00 0.00 83 1014.3
20260505000003 22 0 0.0 0.0 0.00 0.00 0.00 83 1014.5
20260504235425 22 0 0.0 0.0 0.00 0.00 0.00 83 1014.6
20260504234504 22 0 0.0 0.0 0.00 0.00 0.00 84 1014.6
20260504233626 22 0 0.0 0.0 0.00 0.00 0.00 85 1014.5
20260504232704 22 0 0.0 0.0 0.00 0.00 0.00 85 1014.5
20260504231825 21 0 0.0 0.0 0.00 0.00 0.00 86 1014.8
20260504230904 21 0 0.0 0.0 0.00 0.00 0.00 86 1014.8
20260504230004 21 0 0.0 0.0 0.00 0.00 0.00 87 1015.0
20260504225404 21 0 0.0 0.0 0.00 0.00 0.00 87 1014.9
20260504224503 21 0 0.0 0.0 0.00 0.00 0.00 88 1014.7
20260504223603 21 0 0.0 0.0 0.00 0.00 0.00 88 1014.9
20260504222704 21 0 0.0 0.0 0.00 0.00 0.00 88 1014.7
20260504221804 20 0 0.0 0.0 0.00 0.00 0.00 88 1014.8
20260504220903 20 0 0.0 0.0 0.00 0.00 0.00 88 1014.8
20260504220004 20 0 0.0 0.0 0.00 0.00 0.00 88 1014.7
20260504215424 20 0 0.0 0.0 0.00 0.00 0.00 88 1014.8
20260504214504 20 0 0.0 0.0 0.00 0.00 0.00 88 1015.0
20260504213604 20 0 0.0 0.0 0.00 0.00 0.00 88 1014.8
20260504212704 20 0 0.0 0.0 0.00 0.00 0.00 88 1014.7
20260504211804 20 0 0.0 0.0 0.00 0.00 0.00 88 1014.6
20260504210903 20 0 0.0 0.0 0.00 0.00 0.00 88 1014.3
20260504210024 20 0 0.0 0.0 0.00 0.00 0.00 88 1014.6
20260504205403 20 0 0.0 0.0 0.00 0.00 0.00 88 1014.2
20260504204524 20 0 0.0 0.0 0.00 0.00 0.00 88 1014.1
20260504203604 20 0 0.0 0.0 0.00 0.00 0.00 88 1014.4
20260504202703 20 0 0.0 0.0 0.00 0.00 0.00 88 1014.1
20260504201804 20 0 0.0 0.0 0.00 0.00 0.00 88 1014.0
20260504200904 20 0 0.0 0.0 0.00 0.00 0.00 88 1013.8
20260504200004 20 0 0.0 0.0 0.00 0.00 0.00 88 1013.8
20260504195403 20 0 0.0 0.0 0.00 0.00 0.00 88 1013.7
20260504194504 20 0 0.0 0.0 0.00 0.00 0.00 88 1013.5
20260504193625 20 0 0.0 0.0 0.00 0.00 0.00 88 1013.4
20260504192725 20 0 0.0 0.0 0.00 0.00 0.00 88 1013.5
20260504191804 20 0 0.0 0.0 0.00 0.00 0.00 88 1013.3
20260504190903 20 0 0.0 0.0 0.00 0.00 0.00 88 1013.3
20260504190003 20 0 0.0 0.0 0.00 0.00 0.00 88 1013.4
20260504185404 20 0 0.0 0.0 0.00 0.00 0.00 88 1013.2
20260504184504 20 0 0.0 0.0 0.00 0.00 0.00 88 1013.3
20260504183603 20 0 0.0 0.0 0.00 0.00 0.00 88 1013.3
20260504182704 20 0 0.0 0.0 0.00 0.00 0.00 88 1013.2
20260504181804 20 0 0.0 0.0 0.00 0.00 0.00 88 1013.1
20260504180904 20 0 0.0 0.0 0.00 0.00 0.00 88 1013.1
20260504180003 20 0 0.0 0.0 0.00 0.00 0.00 88 1013.0
20260504175404 20 0 0.0 0.0 0.00 0.00 0.00 88 1012.9
20260504174525 20 0 0.0 0.0 0.00 0.00 0.00 88 1013.0
20260504173604 20 0 0.0 0.0 0.00 0.00 0.00 88 1013.1
20260504172703 20 0 0.0 0.0 0.00 0.00 0.00 88 1013.2
20260504171803 20 0 0.0 0.0 0.00 0.00 0.00 88 1012.9
20260504170925 20 0 0.0 0.0 0.00 0.00 0.00 88 1012.9
20260504150904 20 0 0.0 0.0 0.00 0.00 0.00 87 1013.6
20260504140904 21 0 0.0 0.0 0.00 0.00 0.00 86 1014.1